Flag for Mexico Weather past 2 weeks in Saltillo, Coahuila, Mexico

Now
48 °F

Light rain. Fog.


Feels Like: 46 °F
Forecast: 43 / 63 °F
Wind: 6 mph from East

Location: Monterrey / Gen Maria

Current Time: Feb 27, 2015 at 5:57:30 AM

Latest Report: Feb 27, 2015 at 3:40 AM


Visibility: 1 mi

Pressure: 30.16 "Hg

Humidity: 94%

Dew point: 46 °F

Location of SaltilloLocation

Historic Weather in Saltillo — Graph

°F

Saltillo temperature yesterday

Maximum temperature yesterday: 72 °F (at 1:40 PM)
Minimum temperature yesterday: 43 °F (at 5:47 AM)
Average temperature yesterday: 57 °F

Past Weeks' High & Low Weather Summary

 TemperatureHumidityPressure
High88 °F (Feb 16, 2:46 PM)100% (Feb 12, 6:45 PM)30.40 "Hg (Feb 12, 6:45 PM)
Low37 °F (Feb 24, 3:46 AM)29% (Feb 26, 12:40 PM)29.76 "Hg (Feb 16, 2:46 PM)
Average56 °F79%30.09 "Hg
* Reported Feb 12 3:50 AM — Feb 27 3:40 AM, Saltillo, Weather by CustomWeather, © 2015

Note: Actual official high and low records may vary slightly from our data, if they occured in-between our weather recording intervals... More about our weather records

Advertising

Saltillo weather history for previous 24 hours

 ConditionsComfort  
Time TempWeatherWind HumidityBarometerVisibility
3:40 AM
Fri, Feb 27
48 °FLight rain. Fog.6 mph94%30.16 "Hg1 mi
12:40 AM52 °FOvercast.7 mph67%30.19 "Hg10 mi
9:42 PM
Thu, Feb 26
59 °FMostly cloudy.16 mph59%30.13 "Hg15 mi
8:45 PM61 °FPassing clouds.14 mph55%30.11 "Hg15 mi
7:45 PM64 °FPassing clouds.14 mph43%30.03 "Hg15 mi
4:52 PM70 °FScattered clouds.9 mph33%29.94 "Hg15 mi
3:51 PM72 °FScattered clouds.16 mph31%29.93 "Hg15 mi
2:51 PM72 °FScattered clouds.10 mph29%29.94 "Hg15 mi
1:40 PM72 °FPassing clouds.9 mph29%29.97 "Hg15 mi
12:40 PM70 °FPassing clouds.7 mph29%29.99 "Hg15 mi
11:40 AM66 °FSunny.7 mph35%30.03 "Hg15 mi
10:43 AM66 °FSunny.3 mph32%30.02 "Hg15 mi
8:47 AM54 °FSunny.8 mph63%30.03 "Hg10 mi
7:40 AM43 °FSunny.8 mph87%29.97 "Hg10 mi
6:41 AM43 °FClear.7 mph87%29.93 "Hg10 mi
5:47 AM43 °FClear.8 mph87%29.95 "Hg10 mi
Weather by CustomWeather, © 2015

See weather overviewHow to use our weather pages